Weather past 2 weeks in Amsterdam Island, French Southern Territories

Now
68 °F

Mild.


Feels Like: 68 °F
Forecast: 66 / 69 °F
Wind: 12 mph from Northwest

Location: Martin De Vivies Ile Amsterdam

Current Time: Mar 31, 2015 at 5:39:00 PM

Latest Report: Mar 31, 2015 at 5:00 PM


Visibility: N/A

Pressure: 30.09 "Hg

Humidity: 91%

Dew point: 65 °F

Location of Amsterdam IslandLocation

Historic Weather in Amsterdam Island — Graph

°F

Amsterdam Island temperature yesterday

Maximum temperature yesterday: 65 °F (at 1:00 PM)
Minimum temperature yesterday: 62 °F (at 2:00 AM)
Average temperature yesterday: 64 °F

Past Weeks' High & Low Weather Summary

 TemperatureHumidityPressure
High73 °F (Mar 24, 12:00 PM)95% (Mar 24, 10:00 PM)30.47 "Hg (Mar 24, 10:00 PM)
Low49 °F (Mar 17, 4:00 AM)49% (Mar 17, 12:00 PM)30.08 "Hg (Mar 25, 4:00 AM)
Average64 °F82%30.28 "Hg
* Reported Mar 16 4:00 PM — Mar 31 4:00 PM, Amsterdam Island, Weather by CustomWeather, © 2015

Note: Actual official high and low records may vary slightly from our data, if they occured in-between our weather recording intervals... More about our weather records

Advertising

Amsterdam Island weather history for previous 24 hours

 ConditionsComfort  
Time TempWeatherWind HumidityBarometerVisibility
4:00 PM
Tue, Mar 31
67 °FMild.10 mph90%30.10 "HgN/A
3:00 PM70 °FMild.13 mph86%30.11 "HgN/A
2:00 PM72 °FMild.12 mph82%30.11 "HgN/A
1:00 PM71 °FMild.14 mph83%30.12 "HgN/A
12:00 PM71 °FMild.14 mph85%30.13 "HgN/A
11:00 AM69 °FMild.12 mph89%30.14 "HgN/A
10:00 AM68 °FMild.12 mph92%30.16 "HgN/A
9:00 AM68 °FMild.10 mph94%30.16 "HgN/A
8:00 AM65 °FMild.7 mph94%30.15 "HgN/A
7:00 AM65 °FMild.8 mph94%30.15 "HgN/A
6:00 AM65 °FMild.13 mph91%30.14 "HgN/A
5:00 AM65 °FMild.10 mph91%30.14 "HgN/A
4:00 AM64 °FMild.8 mph91%30.14 "HgN/A
3:00 AM65 °FMild.8 mph93%30.15 "HgN/A
1:00 AM65 °FMild.9 mph94%30.17 "HgN/A
12:00 AM65 °FMild.8 mph95%30.17 "HgN/A
11:00 PM
Mon, Mar 30
65 °FMild.7 mph95%30.18 "HgN/A
10:00 PM65 °FMild.6 mph95%30.19 "HgN/A
9:00 PM65 °FMild.8 mph95%30.19 "HgN/A
8:00 PM65 °FMild.7 mph95%30.19 "HgN/A
7:00 PM65 °FMild.8 mph95%30.19 "HgN/A
6:00 PM64 °FMild.10 mph95%30.18 "HgN/A
5:00 PM65 °FMild.8 mph95%30.17 "HgN/A
Weather by CustomWeather, © 2015

See weather overviewHow to use our weather pages